FW2027 Weather Reports


Display with metric or nautical units.
time (UTC)temp
F
wind
direction
speed
MPH
gust
MPH
rain 1hr
in
rain 24hr
in
rain mn
in
humidity
%
barometer
mb
20240622174509 65 252 5.0 8.0 0.00 0.03 0.00 70 1012.9
20240622173006 65 235 4.0 8.0 0.00 0.03 0.00 69 1012.8
20240622171506 66 239 5.0 12.0 0.00 0.03 0.00 68 1012.7
20240622170014 67 259 6.0 11.0 0.00 0.03 0.00 66 1012.5
20240622164502 65 224 4.0 11.0 0.00 0.03 0.00 69 1012.5
20240622163001 65 228 4.0 10.0 0.00 0.03 0.00 70 1012.4
20240622161608 65 227 6.0 12.0 0.00 0.03 0.00 67 1012.4
20240622161503 66 232 6.0 12.0 0.00 0.03 0.00 66 1012.3
20240622160105 66 273 4.0 11.0 0.00 0.03 0.00 66 1012.4
20240622154603 67 284 4.0 10.0 0.00 0.03 0.00 63 1012.3
20240622153101 67 246 6.0 10.0 0.00 0.03 0.00 66 1012.3
20240622151556 66 200 5.0 11.0 0.00 0.03 0.00 66 1012.2
20240622150103 66 201 4.0 8.0 0.00 0.03 0.00 69 1012.1
20240622144555 66 220 5.0 11.0 0.00 0.03 0.00 66 1012.4
20240622143054 65 266 4.0 9.0 0.00 0.03 0.00 68 1012.2
20240622141554 65 267 1.0 8.0 0.00 0.03 0.00 67 1012.4
20240622140053 65 249 4.0 11.0 0.00 0.03 0.00 67 1012.3
20240622134552 65 223 5.0 9.0 0.00 0.03 0.00 66 1012.3
20240622133056 65 262 4.0 10.0 0.00 0.03 0.00 67 1012.4
20240622131551 66 273 7.0 11.0 0.00 0.03 0.00 66 1012.2
20240622130051 66 252 5.0 12.0 0.00 0.03 0.00 63 1012.1
20240622124549 66 305 3.0 11.0 0.00 0.03 0.00 62 1012.0
20240622123046 67 202 7.0 12.0 0.00 0.03 0.00 62 1011.9
20240622121549 66 262 5.0 10.0 0.00 0.03 0.00 64 1011.8
20240622120049 65 255 5.0 10.0 0.00 0.03 0.00 67 1011.6
20240622114540 65 246 3.0 9.0 0.00 0.03 0.00 65 1011.5
20240622113041 63 269 5.0 13.0 0.00 0.03 0.00 67 1011.7
20240622111536 63 263 5.0 12.0 0.00 0.03 0.00 68 1011.6
20240622110041 63 236 4.0 9.0 0.00 0.03 0.00 68 1011.5
20240622104534 63 328 4.0 10.0 0.00 0.03 0.00 70 1011.3
20240622103031 63 324 3.0 10.0 0.00 0.03 0.00 69 1011.1
20240622101530 62 247 4.0 8.0 0.00 0.03 0.00 69 1011.2
20240622100027 62 321 3.0 8.0 0.00 0.03 0.00 72 1011.0
20240622094529 62 286 2.0 8.0 0.00 0.03 0.00 73 1011.1
20240622093025 62 304 3.0 10.0 0.00 0.03 0.00 71 1011.0
20240622091530 62 229 3.0 9.0 0.00 0.03 0.00 74 1010.8
20240622090018 61 273 4.0 10.0 0.00 0.03 0.00 74 1010.8
20240622084518 60 309 5.0 10.0 0.00 0.03 0.00 74 1010.7
20240622083015 60 261 6.0 10.0 0.00 0.03 0.00 73 1010.7
20240622081521 60 271 5.0 13.0 0.00 0.03 0.00 76 1010.6